TVS430F LSZH-LKPR

Flight info

Callsign TVS430F
Flight time 1h 5m
Altitude 37000
Route DEGES Z2 XEBIX N871 NENUM Z39 DOLUP DCT APRAQ
Aircraft A320/M-SDE3FGHIRWY/LB1

Departure

Time 2026-04-26 16:34
Airport Zürich Airport (LSZH)

Arrival

Time 2026-04-26 17:40
Airport Václav Havel Airport Prague (LKPR)
Time Latitude Longitude Altitude Speed Heading
2026-04-26 15:35 47.46041 8.55834 1397 ft 0 kts
2026-04-26 16:13 47.46030 8.55833 1407 ft 3 kts
2026-04-26 16:13 47.46011 8.55830 1400 ft 3 kts
2026-04-26 16:14 47.45992 8.55824 1404 ft 3 kts 358°
2026-04-26 16:14 47.45973 8.55833 1406 ft 3 kts 317°
2026-04-26 16:14 47.45962 8.55848 1405 ft 0 kts 319°
2026-04-26 16:18 47.45963 8.55847 1405 ft 0 kts 319°
2026-04-26 16:18 47.45963 8.55844 1405 ft 0 kts 298°
2026-04-26 16:19 47.45960 8.55835 1404 ft 0 kts 261°
2026-04-26 16:24 47.45956 8.55801 1398 ft 8 kts 260°
2026-04-26 16:25 47.45953 8.55664 1396 ft 17 kts 276°
2026-04-26 16:25 47.45966 8.55484 1403 ft 21 kts 276°
2026-04-26 16:25 47.45984 8.55237 1393 ft 27 kts 276°
2026-04-26 16:25 47.46003 8.54971 1394 ft 20 kts 280°
2026-04-26 16:26 47.46017 8.54947 1402 ft 1 kts 324°
2026-04-26 16:26 47.46030 8.54935 1404 ft 5 kts 330°
2026-04-26 16:26 47.46114 8.54875 1396 ft 14 kts 334°
2026-04-26 16:26 47.46222 8.54800 1400 ft 19 kts 335°
2026-04-26 16:27 47.46358 8.54707 1395 ft 25 kts 335°
2026-04-26 16:27 47.46530 8.54589 1398 ft 29 kts 335°
2026-04-26 16:27 47.46710 8.54464 1393 ft 29 kts 335°
2026-04-26 16:27 47.46877 8.54364 1395 ft 27 kts 335°
2026-04-26 16:28 47.47050 8.54246 1398 ft 29 kts 335°
2026-04-26 16:28 47.47210 8.54135 1404 ft 25 kts 334°
2026-04-26 16:28 47.47373 8.54022 1400 ft 20 kts 335°
2026-04-26 16:28 47.47507 8.53931 1401 ft 20 kts 335°
2026-04-26 16:29 47.47591 8.53863 1395 ft 9 kts 315°
2026-04-26 16:29 47.47609 8.53811 1398 ft 1 kts 284°
2026-04-26 16:29 47.47608 8.53815 1398 ft 5 kts 289°
2026-04-26 16:29 47.47594 8.53851 1396 ft 2 kts 315°
2026-04-26 16:30 47.47639 8.53840 1399 ft 14 kts 337°
2026-04-26 16:30 47.47704 8.53776 1398 ft 9 kts 298°
2026-04-26 16:30 47.47699 8.53711 1404 ft 0 kts 239°
2026-04-26 16:33 47.47696 8.53707 1403 ft 5 kts 229°
2026-04-26 16:33 47.47635 8.53652 1401 ft 14 kts 201°
2026-04-26 16:33 47.47539 8.53621 1398 ft 13 kts 171°
2026-04-26 16:34 47.47450 8.53675 1402 ft 18 kts 155°
2026-04-26 16:34 47.47047 8.53955 1405 ft 114 kts 155°
2026-04-26 16:34 47.46050 8.54627 1642 ft 179 kts 153°
2026-04-26 16:34 47.44944 8.55346 2958 ft 177 kts 155°
2026-04-26 16:35 47.44211 8.55824 3641 ft 187 kts 158°
2026-04-26 16:35 47.43065 8.56164 4474 ft 204 kts 168°
2026-04-26 16:35 47.41669 8.56961 5416 ft 223 kts 152°
2026-04-26 16:35 47.40290 8.58122 6506 ft 234 kts 150°
2026-04-26 16:36 47.38848 8.59339 7976 ft 234 kts 153°
2026-04-26 16:36 47.37404 8.60463 9356 ft 238 kts 155°
2026-04-26 16:36 47.35893 8.61548 10633 ft 245 kts 157°
2026-04-26 16:36 47.34369 8.62590 11814 ft 251 kts 158°
2026-04-26 16:37 47.32751 8.63676 12942 ft 261 kts 157°
2026-04-26 16:37 47.31092 8.65002 13610 ft 287 kts 142°
2026-04-26 16:37 47.29729 8.67437 14013 ft 325 kts 117°
2026-04-26 16:37 47.29083 8.70727 14493 ft 351 kts 94°
2026-04-26 16:38 47.29333 8.74503 15173 ft 368 kts 71°
2026-04-26 16:38 47.30453 8.77818 16223 ft 368 kts 51°
2026-04-26 16:38 47.32280 8.80443 17300 ft 370 kts 32°
2026-04-26 16:38 47.34565 8.82042 18355 ft 370 kts 13°
2026-04-26 16:39 47.37151 8.82604 19331 ft 372 kts
2026-04-26 16:39 47.39764 8.83671 20346 ft 380 kts 21°
2026-04-26 16:39 47.42007 8.85810 21278 ft 391 kts 38°
2026-04-26 16:39 47.43800 8.88884 22166 ft 403 kts 54°
2026-04-26 16:40 47.44996 8.92680 23031 ft 416 kts 69°
2026-04-26 16:40 47.45497 8.96927 23837 ft 429 kts 84°
2026-04-26 16:40 47.45244 9.01376 24581 ft 438 kts 100°
2026-04-26 16:40 47.44332 9.05692 25345 ft 443 kts 109°
2026-04-26 16:41 47.43268 9.09979 26083 ft 446 kts 108°
2026-04-26 16:41 47.42306 9.14426 26798 ft 449 kts 103°
2026-04-26 16:41 47.41783 9.18904 27462 ft 450 kts 92°
2026-04-26 16:41 47.41839 9.23595 27974 ft 450 kts 81°
2026-04-26 16:42 47.42412 9.28174 28160 ft 449 kts 74°
2026-04-26 16:42 47.43118 9.32664 28183 ft 449 kts 74°
2026-04-26 16:42 47.44522 9.41736 28184 ft 449 kts 75°
2026-04-26 16:43 47.45881 9.50730 28185 ft 448 kts 75°
2026-04-26 16:43 47.46982 9.59795 28183 ft 451 kts 83°
2026-04-26 16:44 47.46786 9.69149 28184 ft 453 kts 93°
2026-04-26 16:44 47.46359 9.76848 28178 ft 453 kts 92°
2026-04-26 16:45 47.45838 9.86323 28182 ft 452 kts 92°
2026-04-26 16:45 47.45232 9.97085 28188 ft 452 kts 92°
2026-04-26 16:46 47.44788 10.04837 28186 ft 452 kts 92°
2026-04-26 16:46 47.44247 10.14165 28193 ft 452 kts 92°
2026-04-26 16:47 47.43751 10.20287 28192 ft 454 kts 99°
2026-04-26 16:48 47.43580 10.21544 28202 ft 455 kts 99°
2026-04-26 16:48 47.42353 10.30567 28201 ft 454 kts 99°
2026-04-26 16:49 47.41121 10.39721 28198 ft 454 kts 99°
2026-04-26 16:49 47.40688 10.48932 28195 ft 450 kts 81°
2026-04-26 16:50 47.41341 10.53438 28200 ft 446 kts 70°
2026-04-26 16:50 47.42401 10.57768 28194 ft 446 kts 67°
2026-04-26 16:50 47.44540 10.66417 28192 ft 446 kts 68°
2026-04-26 16:51 47.46652 10.75053 28188 ft 446 kts 68°
2026-04-26 16:51 47.48764 10.83746 28185 ft 446 kts 68°
2026-04-26 16:52 47.50498 10.90925 28183 ft 447 kts 68°
2026-04-26 16:52 47.52952 11.01120 28173 ft 447 kts 68°
2026-04-26 16:53 47.55034 11.09798 28176 ft 447 kts 69°
2026-04-26 16:53 47.57125 11.18521 28159 ft 447 kts 69°
2026-04-26 16:54 47.59210 11.27250 28159 ft 447 kts 69°
2026-04-26 16:54 47.61283 11.35968 28154 ft 448 kts 69°
2026-04-26 16:55 47.63283 11.44684 28161 ft 449 kts 71°
2026-04-26 16:55 47.65096 11.53744 28157 ft 449 kts 72°
2026-04-26 16:56 47.67771 11.67042 28155 ft 450 kts 72°
2026-04-26 16:57 47.69563 11.75874 28170 ft 450 kts 72°
2026-04-26 16:57 47.71913 11.87946 28166 ft 451 kts 73°
2026-04-26 16:58 47.73049 11.92240 28161 ft 449 kts 60°
2026-04-26 16:58 47.74135 11.94858 28164 ft 448 kts 52°
2026-04-26 16:58 47.79371 12.02183 28166 ft 445 kts 37°
2026-04-26 16:59 47.81758 12.05106 28172 ft 445 kts 37°
2026-04-26 17:00 47.91373 12.16953 28173 ft 446 kts 37°
2026-04-26 17:00 47.98593 12.25875 28176 ft 447 kts 37°
2026-04-26 17:01 48.03446 12.31882 28191 ft 447 kts 37°
2026-04-26 17:01 48.08253 12.37856 28188 ft 448 kts 37°
2026-04-26 17:02 48.13028 12.43807 28197 ft 449 kts 37°
2026-04-26 17:02 48.17816 12.49800 28192 ft 449 kts 37°
2026-04-26 17:03 48.22640 12.55850 28204 ft 449 kts 37°
2026-04-26 17:03 48.27695 12.61551 28187 ft 448 kts 34°
2026-04-26 17:04 48.32747 12.67184 28138 ft 449 kts 34°
2026-04-26 17:04 48.37883 12.72924 28204 ft 456 kts 34°
2026-04-26 17:05 48.42567 12.78974 28188 ft 450 kts 40°
2026-04-26 17:05 48.46524 12.84506 28186 ft 451 kts 40°
2026-04-26 17:06 48.51115 12.90920 28190 ft 451 kts 40°
2026-04-26 17:06 48.56054 12.96650 28196 ft 446 kts 27°
2026-04-26 17:07 48.61673 13.01435 28187 ft 445 kts 26°
2026-04-26 17:07 48.67043 13.06074 28194 ft 444 kts 26°
2026-04-26 17:08 48.72402 13.10702 28192 ft 443 kts 26°
2026-04-26 17:08 48.77779 13.15351 28196 ft 442 kts 26°
2026-04-26 17:09 48.82220 13.19198 28196 ft 441 kts 26°
2026-04-26 17:09 48.88433 13.24463 28201 ft 438 kts 21°
2026-04-26 17:10 48.94049 13.28041 28205 ft 435 kts 19°
2026-04-26 17:10 48.99518 13.31524 28209 ft 434 kts 19°
2026-04-26 17:11 49.05175 13.35134 28208 ft 432 kts 19°
2026-04-26 17:11 49.10642 13.38908 28215 ft 436 kts 26°
2026-04-26 17:12 49.15630 13.44496 28223 ft 443 kts 38°
2026-04-26 17:12 49.17906 13.47617 28222 ft 442 kts 38°
2026-04-26 17:13 49.24727 13.56865 28229 ft 443 kts 38°
2026-04-26 17:14 49.25313 13.57664 28228 ft 443 kts 38°
2026-04-26 17:14 49.31102 13.65575 27963 ft 438 kts 38°
2026-04-26 17:15 49.35777 13.71991 26466 ft 433 kts 38°
2026-04-26 17:15 49.38057 13.75126 25655 ft 430 kts 38°
2026-04-26 17:15 49.40275 13.78180 24887 ft 427 kts 38°
2026-04-26 17:16 49.42479 13.81218 24148 ft 424 kts 38°
2026-04-26 17:16 49.44667 13.84235 23329 ft 420 kts 38°
2026-04-26 17:16 49.46812 13.87200 22566 ft 414 kts 38°
2026-04-26 17:16 49.48969 13.90184 21826 ft 409 kts 38°
2026-04-26 17:17 49.51079 13.93106 21089 ft 404 kts 38°
2026-04-26 17:17 49.53179 13.96017 20357 ft 399 kts 38°
2026-04-26 17:17 49.55227 13.98861 19651 ft 394 kts 38°
2026-04-26 17:17 49.57231 14.01646 18970 ft 390 kts 38°
2026-04-26 17:18 49.59184 14.04364 18275 ft 386 kts 38°
2026-04-26 17:18 49.61265 14.07262 17507 ft 381 kts 38°
2026-04-26 17:18 49.63269 14.09950 16788 ft 374 kts 32°
2026-04-26 17:18 49.65484 14.11979 16093 ft 364 kts 20°
2026-04-26 17:19 49.70237 14.13956 14714 ft 350 kts
2026-04-26 17:19 49.72649 14.14711 14049 ft 347 kts
2026-04-26 17:19 49.74998 14.15454 13345 ft 343 kts
2026-04-26 17:20 49.77385 14.16213 12615 ft 340 kts
2026-04-26 17:20 49.78920 14.16701 12162 ft 338 kts
2026-04-26 17:20 49.81983 14.17678 11274 ft 333 kts
2026-04-26 17:20 49.84236 14.18503 10588 ft 334 kts 16°
2026-04-26 17:21 49.86239 14.20348 9924 ft 340 kts 38°
2026-04-26 17:21 49.87691 14.23284 9268 ft 342 kts 58°
2026-04-26 17:21 49.88766 14.26548 8620 ft 339 kts 61°
2026-04-26 17:21 49.89784 14.29785 7986 ft 336 kts 61°
2026-04-26 17:22 49.90719 14.32765 7455 ft 331 kts 61°
2026-04-26 17:22 49.91391 14.34887 7036 ft 329 kts 61°
2026-04-26 17:22 49.92074 14.38268 6459 ft 329 kts 82°
2026-04-26 17:22 49.92111 14.39450 6239 ft 328 kts 90°
2026-04-26 17:23 49.92094 14.39989 6145 ft 329 kts 94°
2026-04-26 17:23 49.91843 14.41996 5820 ft 327 kts 107°
2026-04-26 17:23 49.90788 14.45049 5271 ft 321 kts 126°
2026-04-26 17:23 49.89421 14.47711 5080 ft 327 kts 130°
2026-04-26 17:24 49.88428 14.49548 5004 ft 325 kts 130°
2026-04-26 17:24 49.87023 14.52173 4998 ft 323 kts 129°
2026-04-26 17:24 49.85602 14.54918 4996 ft 323 kts 128°
2026-04-26 17:24 49.84261 14.57605 4995 ft 323 kts 128°
2026-04-26 17:25 49.82858 14.60456 4987 ft 323 kts 127°
2026-04-26 17:25 49.81460 14.63310 4989 ft 325 kts 127°
2026-04-26 17:25 49.80088 14.66114 4988 ft 324 kts 127°
2026-04-26 17:25 49.78676 14.68992 4993 ft 323 kts 127°
2026-04-26 17:26 49.77300 14.71791 4988 ft 323 kts 127°
2026-04-26 17:26 49.75904 14.74716 4992 ft 323 kts 121°
2026-04-26 17:26 49.75137 14.77986 4989 ft 322 kts 97°
2026-04-26 17:26 49.75263 14.81406 4991 ft 318 kts 73°
2026-04-26 17:27 49.76261 14.84449 4993 ft 312 kts 48°
2026-04-26 17:27 49.77873 14.86624 4988 ft 309 kts 29°
2026-04-26 17:27 49.79878 14.87721 4992 ft 303 kts
2026-04-26 17:27 49.81977 14.87407 4997 ft 301 kts 340°
2026-04-26 17:28 49.83725 14.85785 4993 ft 284 kts 315°
2026-04-26 17:28 49.84749 14.83274 4991 ft 265 kts 288°
2026-04-26 17:28 49.85133 14.80561 4989 ft 245 kts 282°
2026-04-26 17:28 49.85530 14.78051 4998 ft 228 kts 289°
2026-04-26 17:29 49.86099 14.75875 4987 ft 209 kts 297°
2026-04-26 17:29 49.86325 14.75207 4995 ft 203 kts 300°
2026-04-26 17:29 49.87535 14.72368 5018 ft 174 kts 306°
2026-04-26 17:29 49.88006 14.71397 4993 ft 155 kts 307°
2026-04-26 17:30 49.88614 14.70160 4988 ft 135 kts 307°
2026-04-26 17:30 49.89180 14.68998 5004 ft 135 kts 307°
2026-04-26 17:30 49.89743 14.67850 4998 ft 133 kts 307°
2026-04-26 17:30 49.90299 14.66714 5002 ft 133 kts 307°
2026-04-26 17:31 49.90834 14.65618 4999 ft 133 kts 307°
2026-04-26 17:31 49.91399 14.64459 5005 ft 134 kts 307°
2026-04-26 17:31 49.91963 14.63304 4993 ft 133 kts 307°
2026-04-26 17:31 49.92532 14.62136 4993 ft 133 kts 307°
2026-04-26 17:32 49.93092 14.60989 4999 ft 133 kts 307°
2026-04-26 17:32 49.93660 14.59825 5007 ft 134 kts 307°
2026-04-26 17:32 49.94214 14.58694 4992 ft 132 kts 307°
2026-04-26 17:32 49.94790 14.57507 4999 ft 134 kts 307°
2026-04-26 17:33 49.95349 14.56356 4992 ft 134 kts 307°
2026-04-26 17:33 49.95917 14.55194 5011 ft 134 kts 307°
2026-04-26 17:33 49.96487 14.54025 5005 ft 134 kts 306°
2026-04-26 17:34 49.97616 14.51705 4994 ft 135 kts 307°
2026-04-26 17:34 49.98186 14.50533 4905 ft 134 kts 307°
2026-04-26 17:34 49.98747 14.49383 4730 ft 133 kts 308°
2026-04-26 17:34 49.99301 14.48244 4561 ft 130 kts 307°
2026-04-26 17:35 49.99861 14.47092 4381 ft 131 kts 307°
2026-04-26 17:35 50.00424 14.45935 4189 ft 131 kts 308°
2026-04-26 17:35 50.00975 14.44801 4027 ft 131 kts 308°
2026-04-26 17:35 50.01535 14.43649 3838 ft 131 kts 308°
2026-04-26 17:36 50.02084 14.42518 3665 ft 131 kts 307°
2026-04-26 17:36 50.02601 14.41456 3503 ft 132 kts 308°
2026-04-26 17:36 50.03159 14.40305 3318 ft 131 kts 308°
2026-04-26 17:36 50.03713 14.39165 3127 ft 131 kts 308°
2026-04-26 17:37 50.04265 14.38028 2948 ft 130 kts 308°
2026-04-26 17:37 50.04807 14.36912 2785 ft 131 kts 308°
2026-04-26 17:37 50.05180 14.36142 2658 ft 130 kts 308°
2026-04-26 17:38 50.06446 14.33534 2234 ft 130 kts 309°
2026-04-26 17:38 50.06957 14.32493 1995 ft 130 kts 309°
2026-04-26 17:38 50.07472 14.31456 1775 ft 129 kts 309°
2026-04-26 17:38 50.08011 14.30308 1633 ft 131 kts 308°
2026-04-26 17:39 50.08359 14.29564 1478 ft 127 kts 309°
2026-04-26 17:39 50.08876 14.28503 1340 ft 130 kts 311°
2026-04-26 17:39 50.09371 14.27467 1230 ft 113 kts 310°
2026-04-26 17:39 50.09787 14.26641 1214 ft 73 kts 307°
2026-04-26 17:40 50.09983 14.26239 1200 ft 34 kts 308°
2026-04-26 17:40 50.10088 14.26023 1193 ft 40 kts 305°
2026-04-26 17:40 50.10272 14.25703 1188 ft 15 kts 332°
2026-04-26 17:40 50.10375 14.25657 1185 ft 9 kts 354°
2026-04-26 17:41 50.10400 14.25657 1185 ft 1 kts
2026-04-26 17:41 50.10427 14.25658 1185 ft 8 kts
2026-04-26 17:41 50.10481 14.25708 1185 ft 11 kts 64°
2026-04-26 17:41 50.10500 14.25846 1184 ft 15 kts 78°
2026-04-26 17:42 50.10556 14.25996 1177 ft 20 kts 36°
2026-04-26 17:42 50.10651 14.26092 1172 ft 16 kts 35°
2026-04-26 17:42 50.10733 14.26179 1174 ft 14 kts 34°
2026-04-26 17:42 50.10779 14.26226 1177 ft 3 kts 33°
2026-04-26 17:43 50.10792 14.26240 1173 ft 0 kts 33°
2026-04-26 17:43 50.10814 14.26262 1176 ft 7 kts 34°
2026-04-26 17:44 50.10873 14.26325 1175 ft 2 kts 34°
2026-04-26 17:44 50.10874 14.26325 1175 ft 0 kts 34°
2026-04-26 17:44 50.10883 14.26335 1177 ft 5 kts 34°
2026-04-26 17:44 50.10937 14.26398 1171 ft 13 kts 38°
2026-04-26 17:45 50.11023 14.26495 1171 ft 12 kts 54°
2026-04-26 17:45 50.11015 14.26555 1172 ft 6 kts 124°
2026-04-26 17:45 50.10973 14.26634 1175 ft 8 kts 148°
2026-04-26 17:45 50.10939 14.26610 1177 ft 8 kts 216°
2026-04-26 17:46 50.10930 14.26601 1172 ft 0 kts 214°